Regional Weather Roundup
Issued by NWS

Home | Current Version | Previous Version | Text Only | Print | Product List | Glossary Off
Versions: 1 2 3 4 5 6 7 8 9 10 11 12 13 14 15 16 17 18 19 20 21 22 23 24 25 26 27

000
ASUS45 KBOU 221907
RWRCO

WEATHER ROUNDUP FOR COLORADO
NATIONAL WEATHER SERVICE DENVER/BOULDER CO
100 PM MDT WED MAR 22 2017

NOTE: "FAIR" INDICATES FEW OR NO CLOUDS BELOW 12000 FEET WITH NO
SIGNIFICANT WEATHER AND/OR OBSTRUCTIONS TO VISIBILITY.

COZ001>005-013-030-031-222000-
...NORTHWEST COLORADO...

CITY           SKY/WX    TMP DP  RH WIND       PRES   REMARKS
CRAIG          FAIR      67  17  14 SW18G35   29.97F
HAYDEN         FAIR      64  19  17 SW29G37   30.00F
MEEKER         PTSUNNY   63  18  17 S21G29    29.99F
MOUNT WERNER   NOT AVBL
STEAMBOAT SPGS PTSUNNY   57  23  27 SW8       30.02S
WALDEN         NOT AVBL
$$

COZ006>008-011-222000-
...WEST CENTRAL VALLEYS...

CITY           SKY/WX    TMP DP  RH WIND       PRES   REMARKS
GRAND JUNCTION PTSUNNY   68  26  20 SE8       29.94F
MONTROSE       FAIR      64  25  22 N10       30.01F
EAGLE          SUNNY     63  18  17 SW25G32   30.04F
RIFLE          FAIR      70  18  13 SW16G28   29.99F
DELTA          FAIR      65  31  27 NE5       29.99F
NUCLA          PTSUNNY   64  21  19 SW7       30.05F
$$

COZ017>023-064>068-222000-
...SOUTHWEST COLORADO...

CITY           SKY/WX    TMP DP  RH WIND       PRES   REMARKS
DURANGO        FAIR      59  28  30 NE8       30.12F
CORTEZ         FAIR      68  26  20 S10G22    30.05F
PAGOSA SPRINGS PTSUNNY   57  24  27 CALM      30.19F
TELLURIDE      FAIR      53  21  28 S8G20     30.18F
WOLF CREEK PAS CLOUDY    34  25  69 S25G35    30.38F WCI  21
$$

COZ009-010-012-014-032>034-037-058>063-222000-
...CENTRAL COLORADO...

CITY           SKY/WX    TMP DP  RH WIND       PRES   REMARKS
ASPEN          FAIR      57  19  22 SW12G20   30.10S
BUENA VISTA    FAIR      64  11  12 S13G29    30.11F
COPPER MTN     NOT AVBL
BERTHOUD PASS  FAIR      37  28  70 SW14G30   30.29S
COTTONWOOD PAS PTSUNNY   55   5  13 SW15G22   30.20F
GUNNISON       FAIR      49  35  58 SE5       30.13F
KREMMLING      FAIR      68  14  12 SW22G35   30.07F
LEADVILLE      FAIR      49  11  21 SW9G17    30.18F
MONARCH PASS   CLOUDY    39  14  35 W21G31    30.41S
SALIDA         FAIR      65  20  17 SW8       30.15F
SUNLIGHT       CLOUDY    39  19  45 SW15G25   30.25F
WILKERSON PASS FAIR      50   9  18 SW18G31   30.25F
$$

COZ069>075-222000-
...SAN LUIS VALLEY/SANGRE DE CRISTO MOUNTAINS...

CITY           SKY/WX    TMP DP  RH WIND       PRES   REMARKS
ALAMOSA        FAIR      65  17  15 SW16G25   30.10F
LA VETA PASS   NOT AVBL
SAGUACHE       FAIR      63  23  22 NE7       30.12F
$$

COZ035-036-038>040-222000-
...NORTHERN COLORADO FRONT RANGE...

CITY           SKY/WX    TMP DP  RH WIND       PRES   REMARKS
DENVER INTL AP PTSUNNY   63  34  33 NE7       29.94F
DMNS CITY PARK   N/A     60  32  34 E8G18     29.92F
AURORA         PTSUNNY   66  35  31 N13       29.94F
FRONT RANGE AP MOSUNNY   68  36  30 NE10G16   29.94F
ERIE MUNI ARPT FAIR      57  32  37 CALM      29.94F
BOULDER MUN AP FAIR      59  34  38 CALM      29.94F
CENTENNIAL     PTSUNNY   65  33  30 N7        29.94F
BROOMFIELD     PTSUNNY   57  32  38 N7        29.96F
FORT COLLINS   FAIR      58  35  42 VRB6      29.95F
LONGMONT       FAIR      62  33  32 CALM      29.96F
$$

COZ041-046-047-076>085-087-088-222000-
...PIKES PEAK/PALMER DIVIDE AND SOUTHERN FOOTHILLS...

CITY           SKY/WX    TMP DP  RH WIND       PRES   REMARKS
COLO. SPRINGS  PTSUNNY   56  31  38 S9        30.04F
A. F. ACADEMY  FAIR      55  31  40 SE12G21   30.03F
SCHRIEVER AFB  FAIR      55  33  42 S9        30.05F
ELLICOTT         N/A    N/A N/A N/A S17       30.02F
FALCON         FAIR      57  30  35 S14       30.06F
FORT CARSON    NOT AVBL
LIMON          FAIR      61  37  41 SE23G29   30.01F
MONUMENT HILL  FAIR      63  28  27 S13G20    30.03F
TRINIDAD       FAIR      79  21  11 SW22G30   29.97F
$$

COZ042>045-048>051-090-091-222000-
...NORTHEAST COLORADO...

CITY           SKY/WX    TMP DP  RH WIND       PRES   REMARKS
GREELEY ARPT   FAIR      59  37  44 VRB6      29.95F
AKRON          FAIR      60  33  36 S25G33    29.96F
BURLINGTON     FAIR      53  35  50 S23G30    30.04F
WRAY           NOT AVBL
STERLING       FAIR      63  36  36 S15G22    29.95F
HOLYOKE        FAIR      59  36  41 S22G28    30.03F
FORT MORGAN    FAIR      64  32  29 SE12      29.95F
$$

COZ086-089-092>099-222000-
...SOUTHEAST COLORADO...

CITY           SKY/WX    TMP DP  RH WIND       PRES   REMARKS
PUEBLO         FAIR      58  34  40 SE5       30.00F
LA JUNTA       FAIR      60  39  45 MISG      29.99F
LAMAR          FAIR      64  37  36 MISG      30.01F
SPRINGFIELD      N/A     61  40  45 S25G35    30.05F
$$




USA.gov is the U.S. government's official web portal to all federal, state and local government web resources and services.